This is the latest recevied weather packets stored in our database for station/object KB1ZFK. If no packets are shown the sender has not sent any weather packets the latest 10 day(s).
| Time | Temp. | Humidity | Pressure | Rain* | Wind** | Luminosity | Snow |
|---|---|---|---|---|---|---|---|
| 1777893992 | 8.33° C | 65% | 1009.4 hPa | 0 mm | - | 45 W/m² | - |
| 1777893688 | 8.33° C | 66% | 1009.4 hPa | 0 mm | - | 47 W/m² | - |
| 1777893384 | 8.33° C | 66% | 1009.4 hPa | 0 mm | - | 40 W/m² | - |
| 1777893080 | 7.78° C | 67% | 1009.5 hPa | 0 mm | - | 41 W/m² | - |
| 1777892778 | 7.78° C | 68% | 1009.2 hPa | 0 mm | - | 39 W/m² | - |
| 1777892474 | 7.22° C | 69% | 1009.2 hPa | 0 mm | - | 36 W/m² | - |
| 1777892170 | 7.22° C | 69% | 1009.2 hPa | 0 mm | - | 33 W/m² | - |
| 1777891866 | 6.67° C | 71% | 1009.5 hPa | 0 mm | - | 31 W/m² | - |
| 1777891564 | 6.67° C | 70% | 1009.2 hPa | 0 mm | - | 30 W/m² | - |
| 1777891261 | 6.67° C | 70% | 1009.3 hPa | 0 mm | - | 27 W/m² | - |
| 1777890960 | 6.67° C | 70% | 1009.3 hPa | 0 mm | - | 23 W/m² | - |
| 1777890655 | 6.11° C | 71% | 1009.4 hPa | 0 mm | - | 21 W/m² | - |
| 1777890351 | 6.11° C | 73% | 1009.2 hPa | 0 mm | - | 18 W/m² | - |
| 1777890047 | 6.11° C | 70% | 1009.2 hPa | 0 mm | - | 19 W/m² | - |
| 1777889745 | 6.67° C | 70% | 1009.5 hPa | 0 mm | - | 17 W/m² | - |
| 1777889443 | 6.67° C | 69% | 1009.4 hPa | 0 mm | - | 16 W/m² | - |
| 1777889140 | 6.11° C | 70% | 1009.2 hPa | 0 mm | - | 9 W/m² | - |
| 1777888838 | 6.67° C | 69% | 1009.4 hPa | 0 mm | - | 7 W/m² | - |
| 1777888533 | 6.67° C | 70% | 1009.3 hPa | 0 mm | - | 3 W/m² | - |
| 1777888230 | 6.67° C | 68% | 1009.3 hPa | 0 mm | - | 3 W/m² | - |
| 1777887927 | 6.67° C | 67% | 1009.4 hPa | 0 mm | - | 1 W/m² | - |
| 1777887624 | 6.67° C | 68% | 1009.2 hPa | 0 mm | - | 0 W/m² | - |
| 1777887320 | 6.67° C | 68% | 1009.3 hPa | 0 mm | - | 0 W/m² | - |
| 1777887016 | 6.67° C | 68% | 1009 hPa | 0 mm | - | 0 W/m² | - |
| 1777886712 | 6.67° C | 66% | 1009.1 hPa | 0 mm | - | 0 W/m² | - |
* Rain latest hour (hover to see other rain measurements)
** Current wind speed in m/s (hover to see current wind gust speed)